Spirit of St Louis, MO

10:07 PM CST on November 13, 2019 (GMT -0600)
Spirit Of Saint Louis

Weather History for KSUS - October, 2019

Change the Weather History Date:

Sunday, October 20, 2019

  Actual Average Record
Temperature  
Mean Temperature 58 °F -  
Max Temperature 66 °F 65 °F 88 °F (2003)
Min Temperature 52 °F 41 °F 30 °F (2006)
Degree Days  
Heating Degree Days 7    
Growing Degree Days 8 (Base 50)    
Moisture  
Dew Point 53 °F    
Average Humidity 84    
Maximum Humidity 100    
Minimum Humidity 67    
Precipitation  
Precipitation 0.00 in - - ()
Sea Level Pressure  
Sea Level Pressure 29.83 in    
Wind  
Wind Speed 4 mph (East)    
Max Wind Speed 8 mph    
Max Gust Speed -    
Visibility 9 miles    
Events      
Averages and records for this station are not official NWS values.
T = Trace of Precipitation, MM = Missing Value Source: NWS Daily Summary

Daily Weather History Graph

Daily Weather History Graph

Search for Another Location

Airport or City:

Astronomy

Oct. 20, 2019 Rise Set
Actual Time 7:16 AM CDT 6:17 PM CDT
Civil Twilight 6:49 AM CDT 6:44 PM CDT
Nautical Twilight 6:18 AM CDT 7:15 PM CDT
Astronomical Twilight 5:47 AM CDT 7:46 PM CDT
Moon 11:29 PM CDT (10/20) 1:42 PM CDT (10/20)
Length of Visible Light 11h 54m
Length of Day
11h 01m
Waning Gibbous, 59% of the Moon is Illuminated
Oct 20
Waning Gibbous
Oct 21
Last Quarter
Oct 27
New
Nov 4
First Quarter
Nov 12
Full

Hourly Weather History & Observations

Time (CDT) Temp. Dew Point Humidity Pressure Visibility Wind Dir Wind Speed Gust Speed Precip Events Conditions
12:01 AM 52.0 °F 52.0 °F 100% 29.82 in 3.0 mi West 4.6 mph - N/A   Mostly Cloudy
12:54 AM 55.9 °F 54.0 °F 93% 29.82 in 10.0 mi West 4.6 mph - N/A   Overcast
1:50 AM 55.4 °F 53.6 °F 94% 29.83 in 8.0 mi West 3.5 mph - N/A   Overcast
1:54 AM 55.9 °F 54.0 °F 93% 29.82 in 8.0 mi West 3.5 mph - N/A   Overcast
2:54 AM 55.9 °F 54.0 °F 93% 29.83 in 6.0 mi WSW 3.5 mph - N/A   Overcast
3:54 AM 55.9 °F 54.0 °F 93% 29.83 in 6.0 mi WNW 3.5 mph - N/A   Overcast
4:54 AM 55.0 °F 54.0 °F 96% 29.84 in 5.0 mi WSW 4.6 mph - N/A   Overcast
5:09 AM 55.0 °F 54.0 °F 96% 29.85 in 5.0 mi WSW 3.5 mph - N/A   Overcast
5:54 AM 55.9 °F 53.1 °F 90% 29.86 in 9.0 mi Calm Calm - N/A   Overcast
6:54 AM 55.9 °F 53.1 °F 90% 29.87 in 10.0 mi Calm Calm - N/A   Overcast
7:54 AM 55.9 °F 53.1 °F 90% 29.88 in 10.0 mi Calm Calm - N/A   Overcast
8:54 AM 57.0 °F 53.1 °F 87% 29.91 in 10.0 mi NW 4.6 mph - N/A   Overcast
9:54 AM 57.9 °F 52.0 °F 81% 29.91 in 10.0 mi ENE 5.8 mph - N/A   Overcast
10:54 AM 57.9 °F 51.1 °F 78% 29.92 in 10.0 mi ENE 5.8 mph - N/A   Overcast
12:54 PM 60.1 °F 51.1 °F 72% 29.90 in 10.0 mi SE 4.6 mph - N/A   Overcast
1:54 PM 62.1 °F 52.0 °F 70% 29.87 in 10.0 mi East 4.6 mph - N/A   Overcast
2:54 PM 63.0 °F 52.0 °F 67% 29.85 in 10.0 mi East 8.1 mph - N/A   Mostly Cloudy
3:54 PM 64.0 °F 53.1 °F 67% 29.84 in 10.0 mi East 5.8 mph - N/A   Mostly Cloudy
4:54 PM 64.9 °F 54.0 °F 68% 29.82 in 10.0 mi East 8.1 mph - N/A   Clear
5:54 PM 63.0 °F 54.0 °F 72% 29.80 in 10.0 mi East 6.9 mph - N/A   Clear
6:54 PM 60.1 °F 54.0 °F 80% 29.80 in 10.0 mi East 4.6 mph - N/A   Clear
7:54 PM 61.0 °F 54.0 °F 78% 29.81 in 10.0 mi East 3.5 mph - N/A   Overcast
8:54 PM 57.9 °F 54.0 °F 87% 29.80 in 9.0 mi ENE 3.5 mph - N/A   Scattered Clouds
9:54 PM 57.0 °F 54.0 °F 89% 29.78 in 8.0 mi East 3.5 mph - N/A   Overcast
10:54 PM 59.0 °F 54.0 °F 83% 29.73 in 10.0 mi ESE 6.9 mph - N/A   Clear
11:54 PM 61.0 °F 54.0 °F 78% 29.68 in 10.0 mi SE 8.1 mph - N/A   Clear